Tracking 22836 objects as of 16-Apr-2021
HD Live streaming from Space Station
objects crossing your sky now

BSAT-2C

Track BSAT-2C now!
BSAT-2C is classified as:


NORAD ID: 27830
Int'l Code: 2003-028A
Perigee: 36,064.3 km
Apogee: 36,128.9 km
Inclination: 6.0 °
Period: 1,451.6 minutes
Semi major axis: 42467 km
RCS: 12.6191 m2 (large)
Launch date: June 11, 2003
Source: Japan (JPN)
Launch site: FRENCH GUIANA (FRGUI)

Backup to BSAT-2A; direct digital broadcasts to homes in Japan and neighboring countries through its Ku-band transponders.
aabbcc
Your satellite tracking list
Your tracking list is empty




NASA's NSSDC Master Catalog

Two Line Element Set (TLE):
1 27830U 03028A   21106.11855663  .00000015  00000-0  00000+0 0  9993
2 27830   5.9519  67.0887 0007605 283.6101 286.1582  0.99201021 65092
Source of the keplerian elements: AFSPC